Weather in Mek'ele

Ethiopia     13°29′38″N   39°28′25″E
temp.,
°C
wind,
m/s
gust,
m/s
humid.,
%
clouds,
%
prec.,
mm/h
press.,
hPa
HPBL,
m
26 july, mon
mon2600:00+14wnw129489 0.0 101679
03:00+13wnw239684 0.0 1014123
06:00+13wnw119979 0.0 101672
09:00+15w228797 0.0 1016441
12:00+18wnw3373100 0.9 1014628
15:00+20nw3364100 1.9 10121001
18:00+19nw2269100 2.6 1012273
21:00+18wsw1176100 3.9 101415
27 july, tue
tue2700:00+17wsw1178100 0.8 101521
03:00+16wnw2282100 1.0 101351
06:00+15nw2388100 0.0 101476
09:00+17wnw347996 0.0 1015494
12:00+20wnw4563100 1.4 10131280
15:00+21nw4461100 3.4 10111166
18:00+18nnw4675100 3.3 1012400
21:00+17nw348598 4.9 1014249
28 july, wed
wed2800:00+15nnw349259 0.0 1015268
03:00+14nw3494100 0.1 1014237
06:00+14wnw239499 0.0 1015155
09:00+17wnw458049 0.0 1015555
12:00+21nw6662100 0.3 10121288
15:00+23nw5652100 2.1 10091807
18:00+18nw687967 6.9 1012547
21:00+17nw3586100 9.2 1015237
29 july, thu
thu2900:00+15nw3591100 0.1 1015268
03:00+15nw3595100 0.1 1014274
06:00+15wnw249489 0.1 1015189
09:00+17wnw458053 0.1 1015651
12:00+20nw566989 0.6 10141035
15:00+21nw6764100 2.9 10121197
18:00+19nw687438 2.8 1012727
21:00+17nnw3485100 6.7 101595
30 july, fri
fri3000:00+16nw1188100 0.9 101539
03:00+16wsw1288100 1.9 101359
06:00+16wnw1183100 1.9 101413
09:00+19wnw226375 2.9 1014337
12:00+21nnw235842 4.1 10131043
15:00+23nne135219 6.3 10101411
18:00+19nw237447 4.8 1012374
21:00+18ne1278100 11.8 101439